FW3855 Weather Reports


time (UTC)temp
C
wind
direction
speed
KPH
gust
KPH
rain 1hr
cm
rain 24hr
cm
rain mn
cm
humidity
%
barometer
mb
20260831040005 26 176 6.4 24.1 0.00 0.00 0.00 42 1017.7
20260831035506 26 202 9.7 24.1 0.00 0.00 0.00 42 1017.7
20260831035004 26 125 9.7 20.9 0.00 0.00 0.00 42 1017.6
20260831034506 26 271 8.0 24.1 0.00 0.00 0.00 42 1017.7
20260831034005 26 169 9.7 24.1 0.00 0.00 0.00 43 1017.7
20260831033507 26 187 9.7 27.4 0.00 0.00 0.00 42 1017.8
20260831033004 26 226 9.7 27.4 0.00 0.00 0.00 42 1017.5
20260831032503 26 206 8.0 20.9 0.00 0.00 0.00 41 1017.5
20260831031002 26 166 8.0 17.7 0.00 0.00 0.00 43 1017.3
20260831030459 26 193 8.0 29.0 0.00 0.00 0.00 43 1017.3
20260831025958 26 172 8.0 29.0 0.00 0.00 0.00 44 1017.3
20260831025458 26 207 8.0 22.5 0.00 0.00 0.00 44 1017.2
20260831024959 26 220 8.0 22.5 0.00 0.00 0.00 44 1017.3
20260831024453 26 120 8.0 22.5 0.00 0.00 0.00 44 1017.2
20260831023949 26 203 8.0 30.6 0.00 0.00 0.00 43 1017.3
20260831023441 27 186 6.4 30.6 0.00 0.00 0.00 41 1017.2
20260831022935 27 195 6.4 22.5 0.00 0.00 0.00 39 1017.2
20260831022428 27 158 6.4 22.5 0.00 0.00 0.00 38 1017.0
20260831021923 27 144 6.4 38.6 0.00 0.00 0.00 37 1016.9
20260831021417 27 137 4.8 19.3 0.00 0.00 0.00 36 1016.8
20260831020911 28 141 4.8 17.7 0.00 0.00 0.00 37 1016.8
20260831020404 28 203 6.4 16.1 0.00 0.00 0.00 36 1016.9
20260831015906 28 222 8.0 27.4 0.00 0.00 0.00 35 1017.0
20260831015404 28 168 4.8 27.4 0.00 0.00 0.00 34 1017.0
20260831014907 29 181 3.2 12.9 0.00 0.00 0.00 30 1016.9
20260831014404 29 113 3.2 12.9 0.00 0.00 0.00 27 1016.9
20260831013900 30 217 4.8 17.7 0.00 0.00 0.00 23 1016.9
20260831013402 30 275 6.4 17.7 0.00 0.00 0.00 22 1016.8
20260831012900 30 206 6.4 16.1 0.00 0.00 0.00 22 1016.7
20260831012358 30 223 8.0 22.5 0.00 0.00 0.00 21 1016.8
20260831011856 30 242 8.0 22.5 0.00 0.00 0.00 21 1016.8
20260831011359 31 288 8.0 19.3 0.00 0.00 0.00 20 1016.9
20260831010857 31 253 8.0 17.7 0.00 0.00 0.00 20 1016.8
20260831010358 31 231 9.7 22.5 0.00 0.00 0.00 20 1017.0
20260831005857 31 262 11.3 24.1 0.00 0.00 0.00 20 1017.0
20260831005400 31 345 11.3 24.1 0.00 0.00 0.00 20 1017.0
20260831004856 31 233 9.7 24.1 0.00 0.00 0.00 19 1016.9
20260831004357 31 294 9.7 22.5 0.00 0.00 0.00 20 1016.9
20260831003857 31 264 9.7 17.7 0.00 0.00 0.00 19 1016.8
20260831003352 31 217 9.7 17.7 0.00 0.00 0.00 19 1016.8
20260831002845 31 218 9.7 29.0 0.00 0.00 0.00 19 1016.8
20260831002339 31 259 11.3 29.0 0.00 0.00 0.00 19 1016.5
20260831001833 31 285 11.3 24.1 0.00 0.00 0.00 20 1016.6
20260831001327 31 285 11.3 24.1 0.00 0.00 0.00 21 1016.6
20260831000821 31 216 9.7 22.5 0.00 0.00 0.00 20 1016.5
20260831000318 32 297 11.3 22.5 0.00 0.00 0.00 20 1016.4
20260830235305 32 237 11.3 29.0 0.00 0.00 0.00 19 1016.6
20260830234757 32 176 11.3 29.0 0.00 0.00 0.00 19 1016.7
20260830234251 32 257 8.0 25.7 0.00 0.00 0.00 17 1016.7
20260830233745 32 283 6.4 17.7 0.00 0.00 0.00 17 1016.7
20260830232733 32 195 8.0 24.1 0.00 0.00 0.00 17 1016.7
20260830232227 32 229 8.0 24.1 0.00 0.00 0.00 17 1016.6
20260830231216 32 330 8.0 22.5 0.00 0.00 0.00 17 1016.7
20260830230709 32 300 12.9 32.2 0.00 0.00 0.00 18 1016.8
20260830225657 32 271 14.5 30.6 0.00 0.00 0.00 17 1016.9
20260830225151 32 279 12.9 30.6 0.00 0.00 0.00 17 1017.0
20260830223634 32 290 8.0 22.5 0.00 0.00 0.00 16 1017.0
20260830223127 32 170 9.7 22.5 0.00 0.00 0.00 16 1017.0
20260830222621 32 293 11.3 33.8 0.00 0.00 0.00 17 1017.0
20260830222115 32 202 11.3 33.8 0.00 0.00 0.00 16 1017.0
20260830221610 33 139 8.0 20.9 0.00 0.00 0.00 17 1017.2
20260830220557 32 107 6.4 27.4 0.00 0.00 0.00 19 1017.4
20260830220051 31 136 8.0 27.4 0.00 0.00 0.00 21 1017.4
20260830215545 31 188 9.7 24.1 0.00 0.00 0.00 20 1017.5
20260830215039 32 276 11.3 24.1 0.00 0.00 0.00 19 1017.6
20260830214533 32 153 11.3 29.0 0.00 0.00 0.00 19 1017.6
20260830214027 32 141 4.8 24.1 0.00 0.00 0.00 18 1017.5
20260830213521 32 281 3.2 17.7 0.00 0.00 0.00 19 1017.6
20260830212004 31 179 8.0 30.6 0.00 0.00 0.00 20 1017.8
20260830211457 31 167 8.0 25.7 0.00 0.00 0.00 22 1017.7
20260830210951 31 261 8.0 19.3 0.00 0.00 0.00 21 1018.1
20260830205940 31 236 6.4 19.3 0.00 0.00 0.00 22 1018.1
20260830204933 31 155 11.3 24.1 0.00 0.00 0.00 20 1018.2
20260830204438 31 123 9.7 20.9 0.00 0.00 0.00 20 1018.3
20260830203935 31 277 8.0 22.5 0.00 0.00 0.00 21 1018.3
20260830203436 31 245 6.4 27.4 0.00 0.00 0.00 22 1018.4
20260830202934 31 210 8.0 27.4 0.00 0.00 0.00 23 1018.3